CAPE
1190 1329 1914 1741 1616 1463 1608 1699 2064 2134 1813 1415 1339 1344 1265 1462 1567 1476 1386 1323 1331 1556 1331 1069 1356 1072 1093 1049 557 564 427 519 317 448 522 801 237 427 179 358 118 0 0
1275 1268 1722 1934 1716 1409 1569 1631 1936 2032 1967 1747 1601 1285 1244 1597 1664 1555 1553 1495 1400 1276 1383 1325 1282 1237 1171 573 495 443 806 841 537 799 600 113 683 652 795 348 0 0 683
1398 1361 1454 1920 1710 1630 1496 1697 1754 1909 1937 1756 1573 1389 1416 1809 1906 1914 1552 1549 1437 1371 1405 1422 1310 1186 1021 497 346 375 876 445 689 694 769 0 0 228 31 0 566 0 287
1450 1493 1636 1808 1630 1732 1715 1709 1909 1829 1685 1629 1605 1783 1996 2137 1822 1789 1504 1521 1438 1246 1477 1413 1340 878 679 493 882 553 652 703 642 796 268 0 3 442 644 0 676 245 535
1496 1542 1734 1812 1693 1685 1778 1786 1911 1984 2068 2038 2160 2174 2134 1917 1723 1672 1656 1648 1243 1400 1367 1406 931 699 795 727 1063 1203 1102 1054 868 605 303 180 1 404 570 0 220 807 519
1405 1483 1881 1742 2035 1688 1740 1893 1824 1707 1904 1811 2061 2012 1690 1687 1660 1752 1369 1418 1430 1511 1485 1292 914 667 1275 1015 1293 430 695 803 590 381 419 427 0 208 164 586 158 554 331
1396 1408 1763 1863 1936 1749 1638 1743 1987 1751 1826 1849 1682 1817 1285 1359 1258 1298 1341 1035 905 1248 1351 1333 1374 607 939 883 834 627 780 638 106 146 334 159 80 270 687 0 536 497 336
1264 1420 1872 1784 1762 1867 1736 1662 1844 1197 1643 1606 1535 1733 1781 1526 1465 1580 1359 1272 983 1019 1540 1333 965 881 1002 960 605 628 446 437 623 480 181 291 327 291 535 183 0 242 984
1321 1603 1968 1796 1846 1841 1902 1828 1675 1108 1045 1513 1700 1750 1561 1813 1790 1632 1631 1472 1230 1164 807 1263 994 1257 953 854 591 570 770 760 686 606 395 168 398 170 580 335 446 349 128
1393 1657 1768 1893 1956 1789 1696 1676 1708 1546 1173 1295 1482 1416 1200 1639 1570 1605 1591 1481 1566 1556 1120 936 1273 1207 1064 768 580 579 708 795 968 761 597 378 271 728 420 406 560 153 34
1598 1690 1680 1210 1367 1754 1815 1863 1688 1604 1651 1212 1401 1758 1659 1370 1140 1311 1345 1365 1600 1549 1022 898 876 992 1259 1274 927 650 588 639 583 672 764 474 144 602 698 685 484 703 171
1126 1170 1163 1243 1054 1013 1041 1499 1701 1575 1504 1625 1590 1708 1578 1515 1474 1402 1281 1176 1397 1308 1334 1056 670 694 814 705 577 760 371 470 442 691 837 526 297 587 736 815 606 600 363
909 728 425 567 285 500 409 410 1416 1333 1310 1326 1394 1520 1566 1453 1308 1295 1134 863 1082 1269 803 1112 964 778 641 898 657 661 641 354 294 416 488 444 486 552 547 949 512 612 471
725 442 382 234 59 79 98 254 377 747 1217 1214 1281 1451 1541 1363 1356 1209 1074 970 1247 1428 1246 1123 886 1131 952 876 875 915 694 488 260 317 341 172 520 478 430 548 633 491 712
621 397 290 203 98 25 53 188 262 653 866 1374 1257 1313 1417 1408 1287 1131 838 1004 1022 1269 1225 1144 1001 875 846 705 710 646 557 367 425 231 174 158 432 448 403 344 395 513 448
755 611 275 17 0 37 44 124 153 203 259 426 1005 910 1148 1165 813 612 540 497 897 1032 989 906 1032 904 560 311 298 480 532 708 930 885 489 299 513 493 386 332 397 474 570
600 277 3 0 16 3 50 139 100 38 91 204 373 241 333 375 210 146 244 244 627 797 909 1072 876 532 393 365 309 298 165 412 513 1061 1212 841 567 444 483 357 397 340 437
718 242 0 0 2 87 47 132 270 177 121 55 54 59 52 113 81 67 92 193 289 465 731 693 584 293 182 173 188 191 198 282 541 928 1017 1060 974 933 743 507 531 485 358
10 58 46 0 6 0 15 141 249 340 363 307 166 100 85 36 185 191 98 111 324 395 605 559 439 260 187 209 187 90 111 157 379 507 853 1075 1102 966 927 878 557 435 360
0 3 0 0 0 261 429 286 362 290 210 152 127 208 73 51 49 219 212 188 254 199 156 202 181 231 180 201 257 177 356 306 712 669 724 854 932 1044 1039 1194 897 694 546
0 0 0 0 233 722 568 256 37 45 57 113 48 201 224 251 184 112 116 142 125 94 185 221 255 205 289 334 73 183 427 410 646 548 198 329 784 918 982 1158 1353 1054 933
3 0 0 0 683 771 527 54 50 91 73 199 106 43 22 118 121 145 74 44 167 131 171 196 224 301 252 56 54 78 123 148 256 157 128 177 606 835 972 1081 1163 1099 1225
101 0 0 0 808 765 765 3 32 33 34 96 91 37 16 30 10 45 172 171 169 130 53 161 207 194 149 97 85 139 59 32 130 83 41 51 117 171 213 366 487 481 536
212 160 251 0 577 753 951 16 0 31 50 49 110 153 75 49 48 170 217 208 391 385 280 187 376 603 455 113 241 477 221 125 118 11 25 1 2 36 121 63 76 110 259
353 422 210 235 393 244 984 724 0 116 154 93 289 431 451 224 175 102 6 132 216 217 180 129 220 116 134 220 217 220 263 154 100 130 5 2 1 1 9 33 21 107 193
558 645 472 99 90 144 1128 846 0 264 187 215 232 300 395 428 354 182 118 143 154 133 189 232 272 599 629 481 552 431 297 171 180 213 101 11 4 2 2 1 1 18 63
CIN
-16 -12 -1 -18 -22 -34 -32 -36 -9 -7 -20 -33 -31 -34 -30 -13 -5 -3 -0 -0 -0 -0 -1 -2 -0 -0 -0 -0 -1 -0 -6 -0 -2 -1 -2 -0 -12 -0 -2 -0 -10 -0 -0
-41 -22 -3 -1 -11 -41 -36 -36 -15 -7 -9 -19 -20 -36 -29 -5 -0 -0 -0 -0 -0 -0 -0 -0 -0 -0 -0 -1 -2 -1 -0 -0 -0 -0 -0 -15 -0 -0 -0 -0 -0 -0 -0
-18 -20 -0 -0 -7 -26 -41 -24 -19 -6 -5 -13 -19 -19 -19 -1 -0 -0 -1 -1 -0 -0 -0 -0 -0 -0 -0 -5 -8 -5 -0 -2 -0 -4 -0 -0 -0 -7 -11 -0 -0 -0 -4
-28 -7 -0 -2 -9 -13 -22 -25 -9 -4 -6 -16 -15 -2 -0 -0 -2 -0 -0 -0 -0 -0 -0 -0 -0 -0 -0 -2 -0 -2 -0 -0 -0 -0 -0 -0 -0 -0 -0 -0 -0 -11 -0
-34 -15 -2 -3 -4 -2 -6 -13 -7 -1 -0 -1 -0 -0 -0 -0 -0 -0 -0 -0 -2 -0 -1 -0 -0 -0 -0 -0 -0 -0 -0 -0 -0 -1 -0 -1 -0 -1 -0 -0 -16 -0 -0
-33 -9 -2 -2 -0 -11 -0 -0 -1 -14 -4 -6 -0 -0 -2 -0 -2 -0 -3 -2 -2 -1 -0 -0 -0 -2 -0 -0 -3 -7 -0 -0 -1 -0 -0 -1 -0 -9 -14 -0 -12 -0 -15
-27 -16 -0 -1 -1 -5 -14 -0 -0 -4 -3 -2 -6 -3 -25 -10 -15 -16 -7 -8 -7 -2 -1 -0 -0 -5 -0 -0 -4 -5 -0 -3 -10 -8 -0 -1 -6 -0 -0 -0 -0 -0 -10
-30 -7 -0 -0 -1 -0 -1 -10 -1 -6 -5 -6 -6 -2 -0 -3 -5 -2 -6 -6 -11 -4 -0 -0 -0 -0 -0 -0 -10 -10 -12 -13 -2 -0 -9 -0 -2 -1 -1 -3 -0 -5 -0
-16 -4 -0 -0 -0 -0 -0 -0 -5 -13 -9 -6 -4 -1 -3 -0 -0 -1 -0 -1 -6 -7 -10 -0 -0 -0 -0 -0 -12 -16 -6 -6 -1 -0 -4 -4 -10 -20 -0 -3 -0 -3 -24
-12 -1 -0 -0 -0 -0 -0 -0 -0 -5 -14 -4 -5 -6 -7 -0 -0 -0 -1 -1 -0 -0 -5 -4 -0 -0 -0 -1 -10 -13 -9 -9 -0 -0 -3 -2 -24 -1 -1 -1 -0 -19 -57
-7 -0 -0 -21 -8 -0 -0 -0 -0 -0 -0 -5 -3 -0 -0 -0 -0 -0 -1 -1 -0 -0 -5 -3 -3 -3 -0 -0 -1 -9 -11 -1 -5 -7 -2 -31 -60 -17 -0 -0 -1 -0 -25
-60 -42 -43 -16 -15 -12 -11 -0 -0 -0 -0 -0 -0 -0 -0 -0 -0 -0 -1 -2 -0 -0 -0 -2 -5 -4 -2 -0 -1 -3 -2 -5 -11 -2 -6 -45 -58 -30 -6 -0 -3 -1 -9
-84 -92 -140 -51 -105 -37 -17 -9 -0 -0 -0 -0 -0 -0 -0 -0 -0 -0 -0 -1 -0 -1 -0 -1 -1 -0 -4 -0 -1 -0 -1 -12 -14 -13 -10 -47 -43 -41 -32 -7 -25 -10 -9
-93 -101 -128 -128 -151 -104 -81 -22 -10 -18 -4 -0 -0 -0 -0 -0 -0 -0 -0 -0 -0 -0 -0 -0 -0 -0 -0 -0 -0 -0 -2 -3 -10 -14 -23 -61 -36 -29 -35 -27 -20 -24 -7
-102 -101 -130 -139 -102 -127 -104 -19 -15 -13 -19 -0 -0 -0 -0 -0 -1 -0 -8 -0 -0 -0 -0 -0 -1 -6 -9 -10 -11 -11 -7 -15 -17 -22 -29 -56 -37 -32 -32 -30 -20 -10 -14
-119 -109 -126 -50 -0 -243 -128 -33 -29 -55 -67 -44 -1 -4 -1 -3 -17 -33 -33 -44 -5 -2 -1 -0 -1 -3 -20 -44 -46 -28 -20 -6 -7 -9 -9 -23 -36 -34 -35 -41 -30 -28 -29
-168 -212 -20 -0 -283 -237 -213 -72 -103 -176 -104 -63 -46 -45 -22 -34 -73 -83 -66 -59 -14 -13 -8 -3 -4 -27 -40 -46 -53 -43 -55 -26 -15 -9 -6 -7 -7 -37 -36 -44 -42 -36 -21
-181 -267 -0 -0 -60 -199 -207 -148 -52 -76 -72 -103 -112 -88 -82 -65 -95 -81 -76 -43 -33 -23 -7 -7 -17 -40 -54 -52 -49 -46 -50 -43 -31 -20 -15 -10 -6 -8 -14 -36 -33 -36 -29
-214 -325 -358 -0 -289 -0 -323 -142 -84 -45 -18 -29 -45 -64 -64 -74 -53 -57 -82 -73 -33 -30 -12 -7 -14 -39 -44 -44 -49 -69 -61 -55 -40 -20 -16 -14 -14 -14 -4 -8 -25 -28 -26
-0 -80 -0 -0 -0 -167 -77 -73 -36 -27 -60 -37 -19 -27 -64 -80 -83 -23 -49 -54 -42 -48 -52 -44 -40 -34 -49 -38 -25 -23 -15 -15 -8 -9 -7 -3 -6 -11 -10 -12 -13 -7 -26
-0 -0 -0 -0 -223 -61 -35 -56 -143 -105 -120 -74 -26 -6 -10 -17 -42 -33 -48 -37 -43 -43 -31 -25 -17 -20 -12 -22 -50 -17 -0 -23 -17 -15 -67 -39 -0 -7 -12 -9 -11 -5 -2
-85 -0 -0 -0 -95 -76 -73 -194 -164 -82 -95 -45 -48 -66 -71 -26 -30 -36 -50 -43 -13 -16 -18 -13 -7 -2 -19 -75 -29 -10 -6 -34 -16 -50 -63 -48 -10 -9 -4 -6 -2 -8 -9
-526 -0 -0 -0 -88 -46 -51 -141 -157 -143 -101 -53 -75 -79 -78 -57 -53 -45 -19 -13 -9 -5 -14 -25 -15 -11 -30 -46 -37 -6 -11 -13 -30 -49 -72 -69 -54 -37 -35 -25 -18 -26 -33
-443 -475 -318 -0 -122 -58 -22 -95 -0 -97 -77 -67 -57 -47 -72 -58 -52 -22 -25 -22 -2 -1 -4 -23 -11 -3 -7 -13 -13 -2 -21 -17 -2 -10 -33 -0 -0 -40 -13 -38 -40 -34 -20
-422 -333 -336 -304 -197 -159 -19 -57 -0 -77 -69 -102 -30 -9 -11 -30 -34 -40 -55 -22 -23 -30 -47 -34 -20 -35 -24 -9 -14 -14 -7 -19 -28 -0 -0 -0 -0 -0 -21 -22 -29 -1 -1
-382 -301 -274 -365 -300 -196 -26 -46 -0 -49 -27 -30 -69 -25 -6 -1 -7 -20 -48 -28 -38 -42 -24 -15 -13 -0 -0 -1 -0 -0 -3 -4 -2 -0 -0 -1 -7 -0 -0 -0 -0 -5 -4
Wind_Speed
22 22 21 20 19 18 17 16 16 17 20 22 25 25 24 23 22 12 23 23 23 23 23 18 16 14 10 7 9 21 19 19 27 28 28 28 28 29 29 27 26 23 25
24 23 21 19 19 18 18 17 16 16 19 20 23 23 23 23 23 22 18 23 23 23 23 18 15 13 12 12 18 26 27 26 26 26 22 24 27 28 27 28 22 29 28
24 22 21 20 19 18 17 16 16 17 18 21 22 22 23 23 23 23 21 22 22 22 9 6 11 8 7 10 27 27 28 28 21 3 24 18 26 27 25 27 28 27 27
22 22 21 19 19 19 17 17 17 15 15 18 21 22 23 24 23 23 22 21 22 23 9 12 8 12 8 23 27 27 28 27 27 20 24 25 26 26 26 24 26 26 26
21 20 20 19 18 18 17 17 17 16 16 17 20 22 22 22 22 20 21 21 20 21 14 17 10 15 20 22 26 27 27 24 21 23 24 19 23 26 26 26 26 25 25
17 18 18 18 18 17 17 16 16 17 19 19 20 19 21 23 22 21 19 22 23 20 19 19 16 16 16 19 25 27 26 26 25 17 19 20 20 25 25 25 25 24 24
17 15 16 16 16 17 17 15 15 18 19 21 20 19 20 22 22 18 21 20 21 20 20 19 19 20 7 18 23 24 25 25 22 20 22 21 21 24 24 24 24 24 23
21 13 11 12 13 14 16 16 14 14 17 18 18 17 23 23 22 20 18 19 18 18 20 20 20 19 13 24 25 24 24 23 22 22 22 22 22 22 23 22 22 22 22
19 19 10 7 7 10 14 16 14 11 10 20 16 19 23 22 21 20 21 21 21 20 18 20 19 19 19 23 24 23 23 21 20 22 22 21 21 22 22 21 21 20 20
19 17 16 8 6 6 10 15 16 10 9 12 12 17 25 21 22 22 21 21 21 21 20 19 19 20 18 23 23 23 21 21 20 19 21 20 19 20 21 20 20 19 18
17 16 15 13 7 6 6 6 15 15 10 5 5 6 25 24 23 21 18 20 21 21 20 19 21 21 18 22 23 23 22 21 21 20 21 17 18 18 18 17 18 17 16
16 15 13 11 8 11 9 3 5 22 5 3 4 6 18 24 24 23 20 21 21 20 21 18 19 20 19 21 19 22 24 22 21 19 18 13 15 15 16 14 14 15 13
15 14 13 13 9 13 22 18 13 16 20 12 8 4 12 18 22 23 22 23 22 22 22 18 17 16 19 21 18 18 16 21 21 14 13 7 13 13 12 11 10 9 12
15 14 13 13 11 19 20 28 11 8 14 19 16 11 11 13 17 21 24 24 22 22 21 20 18 16 14 13 16 18 20 17 16 15 14 11 5 7 7 8 5 5 5
14 12 13 14 14 12 23 27 2 18 16 21 24 23 15 18 8 10 21 24 21 18 21 21 19 17 16 15 16 16 18 20 21 18 15 14 12 4 2 2 3 3 2
13 13 13 13 16 12 13 19 19 6 13 22 25 25 28 26 25 15 19 24 26 12 16 17 18 17 18 16 14 15 15 21 19 15 14 13 6 5 2 3 3 2 6
13 13 13 13 16 18 17 17 10 17 15 24 22 22 29 26 5 13 21 27 4 11 15 15 14 14 17 18 18 18 17 13 18 14 10 6 1 6 6 6 6 5 5
12 12 13 14 15 16 15 15 13 15 21 19 17 18 32 31 15 10 27 11 4 10 11 14 13 15 18 23 26 26 23 17 10 4 4 3 3 1 1 8 7 6 4
11 11 13 13 14 13 12 12 11 9 20 24 21 23 25 10 7 1 4 7 10 6 7 13 18 18 23 26 29 30 30 11 11 1 4 2 3 6 8 11 5 4 3
13 12 12 12 13 13 13 12 12 10 14 19 15 14 14 7 14 7 7 3 8 13 15 15 17 18 23 27 28 27 23 17 18 15 9 11 12 11 9 13 15 11 4
14 12 11 12 13 14 15 14 13 12 14 15 12 10 7 9 9 11 9 4 13 13 11 14 23 30 31 22 25 22 17 20 19 17 16 12 7 10 10 11 14 13 13
12 12 11 11 11 12 13 14 15 15 17 17 14 10 13 13 15 14 16 20 21 18 16 14 29 26 22 15 17 21 17 15 14 16 17 18 17 18 15 17 18 16 16
10 11 10 10 10 10 12 15 16 17 16 15 15 13 9 10 19 19 17 24 27 22 11 4 9 9 18 13 17 19 17 18 15 17 19 19 18 18 18 18 17 17 18
9 10 10 10 9 9 11 12 13 14 16 14 14 14 12 9 4 9 15 19 23 22 20 14 12 10 8 6 10 21 22 18 17 16 16 16 16 16 16 16 16 16 15
9 9 10 10 10 9 10 10 10 13 14 14 13 14 13 12 10 13 14 17 16 15 16 14 14 13 15 14 10 20 13 18 17 15 14 13 16 17 17 16 16 15 13
9 10 10 11 10 10 9 9 8 9 12 12 12 12 12 12 13 15 16 20 17 18 18 18 17 14 15 18 16 12 11 14 8 10 14 13 11 14 15 16 14 14 13
Wind_Direction
114 115 109 99 95 87 83 73 68 73 93 100 110 111 109 108 106 41 120 121 131 119 114 70 56 49 41 228 26 81 69 70 127 114 112 121 122 117 112 135 139 149 144
113 114 109 100 97 89 87 81 76 76 85 92 105 109 108 112 123 161 188 141 127 125 125 73 58 52 49 49 75 111 128 101 97 100 76 147 131 102 93 110 157 109 126
115 112 111 103 100 97 90 85 81 84 89 98 103 107 114 122 140 147 165 157 132 142 172 282 42 32 22 44 119 118 116 134 79 160 152 168 132 118 91 104 111 98 105
110 114 113 107 105 105 97 94 91 84 83 93 107 110 120 129 142 155 157 165 160 147 241 221 246 218 237 159 131 121 134 136 128 168 150 140 118 118 102 95 111 108 105
108 111 111 110 104 105 104 104 101 97 92 93 104 113 112 120 138 184 183 170 178 178 213 196 234 207 187 176 151 124 134 146 169 153 148 173 148 117 113 115 114 101 114
95 105 107 111 110 108 111 109 109 109 110 108 115 109 122 135 167 166 202 173 155 176 187 191 204 211 206 195 165 141 129 126 151 189 180 175 168 127 130 138 123 114 118
94 93 104 110 108 113 114 113 116 122 123 129 123 119 116 128 170 199 173 181 163 185 183 193 199 196 258 205 180 171 153 135 167 176 158 165 164 150 139 135 139 130 121
101 81 79 96 99 110 120 121 121 121 123 124 122 116 156 175 182 212 223 208 203 202 182 190 200 207 233 180 171 166 170 177 173 170 156 151 148 153 142 133 133 132 132
95 100 52 57 69 98 121 132 126 114 112 140 121 138 167 214 209 214 208 199 191 185 216 201 213 214 217 196 180 179 180 188 195 177 163 160 139 146 144 133 135 128 129
97 103 96 49 67 75 111 137 140 120 115 124 117 136 204 236 222 207 216 206 209 201 213 229 225 220 233 212 206 205 207 201 209 201 162 158 131 143 148 143 138 133 132
98 101 109 99 36 344 334 103 145 143 131 100 86 87 198 207 218 233 248 240 216 194 218 239 232 233 248 231 223 223 220 223 220 218 183 135 131 136 137 135 141 136 127
101 99 106 102 94 315 311 332 304 245 291 334 335 320 251 224 225 227 243 242 237 242 220 248 250 247 253 246 254 245 224 234 234 253 256 119 134 133 138 127 130 137 125
103 103 97 71 45 320 270 272 276 268 258 280 301 338 292 266 245 234 238 230 232 238 230 254 263 271 261 257 273 274 283 263 266 303 316 36 143 141 136 123 118 111 131
100 108 94 79 76 302 279 211 156 284 274 266 275 293 297 288 274 261 241 237 244 241 250 252 265 279 293 298 286 281 277 288 298 304 312 332 96 133 130 131 98 62 81
96 111 104 84 79 181 259 230 228 267 273 263 254 260 282 276 307 304 262 245 257 279 261 257 269 282 290 295 294 293 287 285 284 299 310 311 322 11 127 60 91 65 71
94 108 115 105 84 149 222 251 258 297 283 263 256 256 244 252 249 287 276 261 239 309 287 280 276 284 284 297 306 303 302 286 294 308 313 317 333 359 117 144 352 7 149
94 101 110 110 96 102 109 134 224 269 289 259 270 271 211 261 168 291 274 259 147 307 289 289 299 299 294 296 299 299 302 309 300 312 323 336 118 176 172 173 175 173 169
94 105 110 108 108 97 109 113 121 165 197 287 283 282 233 227 172 294 262 291 299 299 297 293 299 301 300 285 274 279 289 302 316 176 172 159 166 162 342 196 190 188 193
90 112 108 106 103 109 109 107 163 132 221 268 286 277 269 275 287 129 266 289 301 295 296 297 289 294 288 287 280 265 267 311 316 273 187 308 330 332 329 325 311 210 236
83 105 105 104 99 99 95 86 71 95 19 310 309 293 281 182 273 296 293 262 291 289 290 294 294 296 294 286 285 290 295 300 304 309 314 317 317 319 322 319 315 320 279
71 107 107 100 90 82 75 74 64 70 51 28 348 311 304 288 281 275 286 298 291 292 293 294 282 263 246 299 293 298 301 286 300 308 314 325 331 325 318 314 316 322 324
68 91 103 103 100 89 77 74 65 65 52 37 33 352 288 288 271 278 281 281 282 291 289 290 259 272 292 311 300 290 299 305 317 320 322 318 318 316 319 316 314 317 321
67 79 105 106 104 109 85 72 66 53 57 63 58 33 353 316 269 275 289 270 268 285 285 236 289 295 297 312 289 291 306 305 321 320 321 320 319 318 318 319 320 319 318
69 69 98 104 106 114 103 83 70 67 27 57 51 46 52 56 44 313 294 283 272 279 279 292 298 300 306 316 324 286 290 310 317 325 330 332 334 334 332 328 329 327 327
63 68 95 86 105 115 114 99 81 45 49 24 26 45 25 28 353 316 310 295 296 299 294 299 298 306 301 307 321 291 317 302 310 324 332 340 337 332 329 331 331 330 338
66 74 93 79 101 117 108 98 102 76 51 52 30 18 7 13 346 319 301 281 301 296 294 294 301 310 306 302 306 313 319 318 333 329 330 340 359 352 340 330 331 328 341